Wind_Speed
25 27 28 31 34 36 39 42 46 51 55 60 65 70 73 74 74 74 74 73 72 67 62 60 62 63 63 63 61 58 57 57 59 61 63 63 63 64 64 63 60 54 47 40
24 25 27 31 35 37 40 44 48 53 57 61 66 70 73 74 73 73 72 72 70 65 60 60 61 63 63 62 60 57 56 58 61 63 64 64 65 67 67 64 58 49 39 29
30 30 30 34 39 41 43 45 49 54 59 62 68 71 73 74 72 72 72 71 68 62 59 59 61 63 63 61 59 57 57 59 62 64 66 67 68 70 70 64 54 40 27 17
36 35 34 38 41 44 46 47 51 55 59 63 68 72 73 73 72 71 70 69 65 60 57 59 61 63 62 61 59 57 57 59 63 65 67 68 71 73 70 63 50 34 21 9
42 42 40 41 44 47 49 49 52 57 61 64 68 72 72 72 71 70 69 68 63 58 56 58 61 62 61 60 59 57 57 60 63 66 67 69 72 74 71 62 47 33 19 9
45 46 45 46 47 48 51 52 55 58 61 65 68 71 71 71 69 68 68 66 62 57 55 57 60 61 60 60 59 58 58 60 64 66 68 69 72 74 72 63 48 34 21 11
48 48 47 49 50 50 51 53 55 58 61 64 68 71 71 69 68 67 67 65 61 57 55 56 59 60 60 59 59 59 58 60 63 66 68 69 71 74 73 65 51 37 24 14
52 53 53 53 52 51 50 52 54 57 61 64 68 70 70 68 67 66 66 64 60 56 54 55 58 59 59 59 59 59 59 60 62 64 66 68 69 71 72 68 56 42 29 18
51 53 54 55 53 51 50 51 54 57 60 64 67 70 69 67 66 65 64 63 59 55 53 54 57 58 58 58 58 58 58 59 60 63 65 67 68 69 71 70 64 51 37 25
50 54 55 56 54 52 50 51 54 57 60 63 67 69 68 66 65 64 63 62 58 54 53 53 55 57 57 57 57 57 57 57 58 60 63 65 67 68 69 69 68 62 49 35
50 54 56 57 56 54 52 52 54 56 59 63 66 68 68 66 64 63 62 61 57 54 52 52 53 55 55 55 55 56 56 56 57 59 61 64 66 67 68 68 69 66 61 50
50 54 57 58 58 56 53 52 54 56 59 62 65 67 67 65 63 62 61 60 57 53 51 50 51 53 53 54 53 54 54 55 55 57 59 61 64 66 67 67 66 66 64 61
50 54 57 60 60 58 55 54 54 56 59 62 64 66 66 64 62 61 60 59 56 53 50 49 49 51 52 52 52 52 52 53 54 55 56 58 60 63 64 65 65 64 64 63
50 53 57 60 61 59 56 55 55 56 58 61 64 65 66 64 61 60 59 58 55 52 49 47 47 49 50 50 50 50 50 52 53 54 55 56 57 59 62 63 64 64 63 62
50 53 56 59 61 60 58 56 55 55 57 60 63 64 65 63 60 59 58 57 55 51 48 46 46 47 48 48 48 48 48 49 51 53 53 54 55 56 58 61 62 64 64 63
51 53 55 59 61 61 60 57 55 55 56 58 61 64 64 62 59 57 56 56 54 51 48 45 44 44 45 46 47 47 46 47 48 50 51 52 52 53 55 57 59 61 63 63
52 54 56 59 61 61 60 57 55 54 55 57 60 63 63 61 58 56 55 54 52 50 47 43 42 42 43 45 45 45 45 45 45 47 48 49 50 51 53 54 56 58 60 62
52 54 56 59 61 61 60 57 55 54 55 57 59 62 62 60 57 54 53 52 51 49 46 42 40 40 41 43 44 44 44 43 43 44 45 46 48 49 50 52 54 55 57 58
53 54 57 60 61 61 59 57 55 54 55 57 59 61 62 59 56 53 52 51 50 48 46 42 39 38 39 40 42 42 43 43 42 42 43 44 45 46 48 50 51 53 54 55
54 55 58 61 60 60 58 56 54 53 54 56 59 61 61 59 55 52 50 49 49 47 45 42 39 37 37 38 39 40 41 42 42 42 41 42 42 44 45 47 49 50 51 52
56 57 60 61 60 59 57 55 53 52 53 55 58 60 60 58 54 51 49 48 47 46 44 42 38 36 35 36 37 38 40 41 41 41 41 41 42 42 43 45 47 48 50 50
57 58 61 61 59 58 56 54 52 51 52 54 57 59 59 56 53 49 47 46 45 44 43 41 39 36 34 34 35 36 38 39 40 41 41 41 41 42 43 43 45 46 47 48
59 61 62 61 58 56 54 52 50 50 51 54 57 58 58 56 52 48 46 44 43 43 42 40 39 36 34 33 33 34 36 37 39 40 40 41 41 42 43 43 44 44 45 46
61 62 62 59 55 54 52 50 48 48 50 53 56 57 57 55 51 48 45 42 41 41 40 39 38 37 35 33 32 32 34 35 36 38 39 40 41 42 43 43 44 44 44 44
62 63 60 56 53 52 50 47 46 47 49 52 55 56 56 54 51 47 44 41 40 39 39 38 38 37 35 34 33 32 32 32 34 35 37 38 40 41 42 43 43 43 43 43
63 61 57 52 50 49 48 46 45 47 49 52 54 55 55 53 50 46 43 41 39 38 38 37 36 36 36 34 33 32 32 31 32 33 35 36 37 39 41 42 43 43 42 41
61 57 52 48 47 47 46 45 45 47 49 52 53 54 54 52 49 46 43 40 38 38 37 36 35 35 35 35 34 33 33 32 32 32 32 33 35 36 38 40 42 42 42 40
Wind_Direction
344 342 340 336 334 334 335 336 337 339 341 342 342 343 344 344 343 343 342 342 342 342 343 344 346 347 347 348 348 349 349 349 347 345 343 341 338 335 332 328 322 316 308 298
343 340 339 334 333 335 337 337 338 340 342 343 343 344 344 344 344 343 343 343 343 343 344 345 347 348 349 350 350 351 351 350 349 348 346 344 341 339 337 334 329 322 313 299
343 340 339 337 337 337 337 338 339 341 342 343 343 344 345 345 344 344 344 344 344 345 345 346 349 350 351 352 352 352 352 353 352 351 350 348 346 345 344 342 339 335 327 309
349 343 343 338 335 336 337 340 339 340 342 343 343 344 346 346 345 345 345 345 346 346 346 348 350 352 353 354 354 354 354 355 355 355 354 353 352 352 351 351 350 350 348 337
353 347 342 338 337 337 337 340 339 340 342 343 343 344 346 346 346 346 346 347 347 347 347 349 352 353 354 355 356 356 356 357 358 358 358 358 358 358 358 359 0 2 6 10
355 350 345 341 338 337 337 338 340 340 342 343 343 344 346 347 346 347 347 348 348 348 349 351 353 355 356 357 357 358 358 359 1 1 2 2 3 4 4 5 7 10 14 21
354 351 348 343 341 339 338 338 339 339 341 342 343 345 347 347 347 347 348 349 349 350 351 352 355 356 357 358 359 360 1 1 3 4 5 6 7 8 10 11 11 13 17 21
353 351 348 345 342 340 338 337 337 339 341 342 344 346 347 347 347 348 349 350 351 351 352 354 356 357 358 359 1 2 3 3 4 6 8 10 11 13 14 16 16 17 19 22
351 349 348 346 343 340 338 337 337 338 340 342 344 346 347 347 348 349 350 351 352 352 353 355 357 359 359 1 2 4 5 5 6 8 10 12 14 16 18 20 21 21 22 23
348 348 347 345 344 341 338 337 337 338 340 342 344 346 347 347 348 349 351 352 353 353 354 356 358 360 0 2 3 6 7 7 8 10 12 14 16 18 20 22 24 25 25 24
345 345 345 345 344 342 340 338 337 338 340 342 344 346 347 347 348 350 351 353 353 354 355 357 359 0 1 3 4 7 8 8 10 12 14 16 18 20 22 24 26 27 28 27
341 342 344 344 344 343 341 339 338 338 340 342 344 346 347 347 348 350 351 353 354 355 356 357 360 1 2 4 5 8 9 10 12 14 16 18 20 21 23 25 27 28 29 30
338 340 342 343 343 343 342 340 339 339 340 341 343 346 347 347 348 350 352 353 354 355 356 358 0 2 3 5 6 9 10 12 13 16 18 19 21 23 25 26 27 28 29 30
335 337 340 341 342 342 342 340 339 339 340 341 343 345 347 347 348 349 351 353 354 355 356 358 0 2 4 6 8 9 11 13 14 16 18 20 22 23 25 26 28 29 30 30
330 334 336 339 340 341 341 340 339 338 339 341 343 345 346 347 348 349 351 353 354 355 356 358 0 2 4 7 8 10 11 13 15 17 19 20 22 23 25 26 28 29 30 30
327 330 333 336 338 339 340 340 339 338 338 340 342 344 346 347 347 348 351 353 354 354 356 358 360 2 5 7 9 10 10 12 14 16 19 21 22 24 25 25 27 28 29 30
323 327 330 333 335 336 338 338 337 337 337 339 341 343 345 346 346 348 350 352 353 354 355 357 359 1 5 7 9 10 10 11 13 15 18 20 22 24 25 25 26 26 27 28
320 323 327 330 332 334 335 336 336 335 336 338 340 342 344 345 346 347 349 351 353 354 355 356 357 0 4 7 9 10 10 11 12 14 17 19 20 22 24 24 25 25 25 26
319 321 325 329 330 332 333 333 334 334 335 336 338 341 342 344 345 346 348 350 352 353 354 354 356 359 2 6 8 10 10 11 12 14 15 17 18 19 21 22 22 23 23 24
317 319 323 327 328 329 330 331 332 332 334 335 337 339 341 343 344 345 346 349 351 352 353 353 354 357 0 4 6 8 10 11 12 13 14 14 14 15 17 19 20 20 21 21
314 317 321 325 326 326 328 329 330 331 332 334 336 338 340 341 342 343 345 347 349 351 352 353 353 354 357 1 4 6 9 10 12 13 13 13 12 13 14 16 17 18 19 20
312 315 319 322 322 323 325 326 328 329 331 333 335 336 338 340 341 341 343 346 348 349 350 351 352 352 354 356 360 3 6 8 10 11 12 12 12 11 12 14 14 15 16 17
310 313 317 319 319 320 322 324 325 327 329 332 333 335 337 338 339 340 342 344 347 347 348 350 351 351 351 352 355 359 2 5 7 8 9 10 11 11 11 12 13 13 14 15
308 311 314 315 316 317 319 321 322 325 328 330 332 334 335 337 337 338 338 342 345 346 346 347 349 350 349 349 350 353 357 0 3 4 6 7 8 8 9 10 11 11 11 12
305 308 311 312 313 314 317 318 320 323 326 329 331 332 334 335 336 336 336 340 343 344 344 344 346 348 348 347 346 347 349 353 356 359 1 3 4 5 6 7 8 8 9 10
303 305 308 309 310 312 314 316 318 321 324 327 329 331 332 334 334 333 334 337 340 342 342 342 343 345 346 346 344 343 343 345 348 351 355 357 360 1 2 3 4 5 6 7
299 302 304 306 308 311 313 314 316 319 322 325 327 329 330 332 332 331 332 334 337 340 340 339 339 341 344 344 344 342 339 338 340 343 346 350 353 355 357 359 1 2 4 4
Height
5849 5843 5838 5832 5827 5821 5814 5805 5796 5787 5777 5765 5752 5739 5724 5709 5694 5678 5662 5646 5630 5615 5601 5588 5574 5559 5544 5529 5514 5500 5487 5474 5460 5445 5429 5414 5398 5382 5366 5350 5335 5323 5316 5312
5849 5843 5837 5831 5824 5817 5809 5800 5791 5782 5772 5760 5747 5734 5719 5704 5689 5673 5657 5641 5626 5610 5597 5584 5570 5556 5540 5525 5511 5497 5483 5470 5455 5439 5423 5406 5389 5371 5352 5333 5316 5302 5294 5292
5845 5839 5834 5826 5819 5811 5804 5796 5786 5776 5767 5754 5741 5729 5714 5699 5684 5669 5653 5637 5621 5607 5593 5580 5567 5552 5536 5522 5507 5494 5480 5466 5451 5435 5418 5400 5381 5361 5340 5319 5301 5287 5281 5279
5840 5835 5828 5824 5814 5806 5798 5791 5780 5771 5760 5749 5737 5724 5710 5695 5680 5664 5648 5633 5618 5604 5591 5577 5564 5549 5533 5519 5505 5491 5478 5464 5448 5432 5414 5395 5375 5354 5332 5310 5293 5282 5276 5275
5835 5828 5823 5817 5809 5800 5792 5786 5776 5766 5755 5744 5732 5719 5706 5691 5675 5660 5645 5630 5615 5601 5588 5575 5561 5546 5532 5518 5504 5490 5476 5462 5447 5430 5412 5393 5373 5351 5329 5309 5292 5282 5277 5275
5832 5824 5817 5813 5804 5795 5787 5780 5771 5760 5750 5740 5728 5715 5702 5686 5671 5656 5641 5626 5612 5599 5586 5573 5559 5545 5531 5517 5503 5489 5475 5460 5445 5428 5410 5392 5373 5352 5330 5310 5295 5286 5281 5279
5830 5822 5815 5807 5798 5789 5782 5775 5765 5756 5746 5735 5723 5711 5697 5682 5667 5653 5638 5623 5609 5596 5584 5571 5558 5544 5530 5516 5502 5488 5474 5459 5445 5429 5412 5394 5375 5355 5335 5316 5301 5291 5285 5283
5824 5816 5811 5801 5792 5785 5779 5769 5760 5751 5741 5731 5719 5705 5691 5678 5664 5649 5635 5620 5606 5593 5582 5570 5557 5543 5530 5516 5502 5488 5474 5461 5446 5431 5416 5399 5381 5363 5344 5326 5310 5299 5291 5288
5823 5816 5807 5797 5789 5781 5773 5765 5756 5747 5737 5726 5714 5702 5688 5675 5661 5647 5632 5618 5604 5592 5580 5568 5556 5543 5530 5517 5504 5490 5476 5463 5449 5435 5420 5404 5388 5371 5353 5336 5320 5307 5298 5293
5819 5811 5804 5794 5785 5777 5768 5760 5751 5742 5732 5722 5710 5698 5685 5672 5658 5644 5630 5616 5603 5590 5579 5567 5555 5543 5530 5518 5505 5492 5479 5467 5453 5439 5424 5410 5394 5379 5363 5347 5332 5317 5307 5299
5816 5808 5800 5791 5782 5773 5764 5755 5747 5738 5728 5718 5706 5694 5681 5668 5655 5642 5628 5615 5602 5589 5578 5567 5555 5543 5532 5520 5507 5494 5482 5470 5457 5444 5430 5415 5400 5386 5371 5356 5341 5329 5318 5308
5812 5804 5796 5787 5778 5768 5759 5751 5742 5733 5724 5713 5702 5691 5678 5665 5652 5639 5626 5613 5600 5588 5577 5566 5555 5544 5533 5521 5509 5498 5486 5475 5462 5449 5436 5422 5408 5394 5380 5367 5354 5341 5330 5319
5807 5799 5791 5782 5773 5764 5755 5746 5738 5729 5719 5709 5699 5687 5675 5662 5650 5637 5624 5612 5599 5587 5577 5566 5556 5545 5534 5523 5511 5500 5490 5478 5467 5454 5442 5430 5418 5405 5392 5379 5366 5354 5342 5331
5801 5794 5787 5778 5770 5760 5751 5742 5733 5724 5715 5705 5695 5683 5671 5659 5647 5635 5623 5611 5599 5587 5576 5566 5556 5547 5536 5525 5514 5503 5493 5482 5471 5460 5448 5437 5425 5414 5402 5390 5378 5366 5354 5343
5797 5790 5782 5774 5765 5756 5747 5737 5729 5720 5711 5701 5691 5680 5668 5656 5645 5633 5621 5609 5598 5587 5576 5566 5557 5547 5537 5527 5517 5507 5497 5487 5476 5465 5454 5443 5433 5422 5411 5400 5388 5377 5365 5354
5792 5785 5777 5769 5760 5751 5742 5733 5724 5716 5706 5697 5687 5676 5665 5653 5642 5631 5620 5608 5597 5586 5576 5566 5557 5549 5539 5529 5519 5509 5500 5491 5481 5471 5460 5450 5440 5429 5419 5409 5398 5387 5376 5366
5785 5778 5771 5764 5755 5746 5737 5728 5720 5711 5702 5693 5683 5673 5662 5651 5640 5629 5618 5607 5596 5586 5576 5566 5558 5550 5541 5531 5521 5512 5503 5494 5485 5475 5466 5456 5447 5436 5426 5416 5406 5396 5385 5376
5779 5773 5766 5758 5749 5740 5732 5723 5714 5706 5697 5688 5679 5669 5658 5647 5637 5627 5616 5606 5596 5586 5576 5567 5558 5550 5541 5532 5523 5515 5506 5498 5489 5480 5471 5462 5452 5443 5433 5424 5414 5404 5394 5384
5771 5765 5758 5751 5742 5734 5726 5717 5709 5701 5692 5683 5674 5665 5654 5644 5634 5624 5615 5605 5595 5585 5576 5567 5558 5550 5542 5534 5525 5517 5509 5500 5492 5483 5475 5466 5457 5449 5440 5430 5421 5411 5402 5392
5763 5757 5750 5743 5735 5727 5719 5711 5703 5695 5687 5678 5670 5660 5650 5640 5630 5621 5612 5603 5593 5584 5574 5566 5557 5550 5542 5535 5527 5519 5511 5503 5495 5487 5478 5470 5462 5454 5445 5436 5427 5418 5408 5399
5754 5748 5742 5735 5728 5720 5712 5705 5697 5689 5682 5673 5665 5656 5646 5636 5626 5617 5608 5600 5591 5582 5573 5565 5557 5550 5543 5536 5529 5521 5514 5506 5498 5490 5482 5474 5466 5458 5449 5440 5432 5423 5414 5405
5745 5739 5734 5727 5720 5713 5705 5698 5690 5683 5676 5668 5659 5651 5641 5632 5622 5613 5605 5597 5589 5580 5572 5564 5557 5549 5543 5536 5529 5523 5515 5508 5500 5492 5485 5477 5469 5461 5453 5444 5436 5427 5419 5411
5735 5730 5725 5719 5712 5705 5698 5691 5684 5677 5670 5662 5654 5646 5636 5627 5618 5610 5602 5594 5586 5578 5571 5563 5556 5549 5542 5536 5530 5523 5516 5509 5502 5495 5487 5480 5472 5464 5456 5448 5440 5432 5424 5416
5725 5721 5715 5709 5703 5696 5690 5683 5677 5670 5664 5656 5649 5640 5631 5622 5614 5606 5598 5591 5583 5576 5569 5562 5555 5548 5541 5535 5529 5523 5517 5510 5503 5497 5489 5482 5475 5467 5459 5451 5443 5435 5427 5420
5715 5711 5706 5700 5694 5688 5682 5676 5670 5664 5657 5650 5643 5634 5626 5617 5609 5601 5594 5587 5580 5573 5566 5559 5553 5546 5540 5534 5528 5522 5516 5510 5504 5498 5491 5484 5477 5470 5462 5454 5447 5439 5431 5423
5704 5700 5696 5691 5685 5679 5673 5668 5662 5656 5650 5643 5636 5628 5620 5612 5604 5596 5590 5583 5576 5570 5563 5557 5550 5544 5538 5532 5526 5521 5515 5509 5503 5497 5491 5485 5478 5471 5464 5457 5449 5441 5434 5426
5693 5689 5685 5681 5676 5671 5665 5660 5654 5649 5643 5637 5630 5622 5614 5606 5599 5591 5585 5579 5573 5566 5560 5554 5548 5542 5536 5530 5524 5518 5513 5507 5502 5496 5490 5485 5478 5472 5465 5458 5451 5443 5436 5428